Location: Newark
(41.6500°N, 71.4833°W)
Time: 21:56:02
(UTC+00:00)

A-11 Canister half - Pass Details

Date: 25 January 2020
Orbit: 1517 x 1683 km, 47.2° (Epoch: 19 February)

Event Time Altitude Azimuth Distance (km) Brightness Sun altitude
Rises 06:42:06 0° 269° (W) 4,706 - -58.4°
Reaches altitude 10° 06:45:14 10° 273° (W) 3,708 - -58.0°
Maximum altitude 06:54:28 63° 354° (N) 1,666 - -56.5°
Exits shadow 07:00:59 22° 70° (ENE) 2,875 10.7 -55.5°
Drops below altitude 10° 07:03:39 10° 75° (ENE) 3,686 11.4 -55.1°
Sets 07:06:46 0° 79° (E) 4,677 12.1 -54.6°
